Regional Weather Roundup
Issued by NWS

Home | Current Version | Previous Version | Text Only | Print | Product List | Glossary Off
Versions: 1 2 3 4 5 6 7 8 9 10 11 12 13 14 15 16 17 18 19 20 21 22 23 24 25 26 27 28 29 30 31 32 33 34 35 36 37 38 39 40 41 42 43 44 45 46 47 48 49 50

000
ASUS43 KDTX 050501
RWRMI
MICHIGAN HOURLY REGIONAL WEATHER ROUNDUP
NATIONAL WEATHER SERVICE DETROIT/PONTIAC MI
100 AM EDT SUN JUL 05 2015

NOTE: "FAIR" INDICATES FEW OR NO CLOUDS BELOW 12,000 FEET WITH NO
SIGNIFICANT WEATHER AND/OR OBSTRUCTION TO VISIBILITY.

MIZ047>049-052>055-059>063-066>070-074>076-081>083-050600-
SOUTHEAST LOWER MICHIGAN

CITY           SKY/WX    TMP DP  RH WIND       PRES   REMARKS
ADRIAN         CLEAR     62  59  90 CALM      30.08R
ALMA           CLEAR     64  61  90 CALM      30.06R
ANN ARBOR      CLEAR     56  55  97 CALM      30.07R
BAD AXE        PTCLDY    64  57  79 CALM      30.05R
CARO           PTCLDY    63  57  82 S5        30.04R
DETROIT CITY   CLEAR     67  56  67 CALM      30.07R
DETROIT        MOCLDY    67  58  72 CALM      30.07R
FLINT          CLOUDY    67  59  75 S8        30.06R
GROSSE ILE     CLEAR     68  63  83 CALM      30.06R
HILLSDALE      CLEAR     61  60  99 CALM      30.08S FOG
HOWELL         CLEAR     62  58  87 SW3       30.07R

CITY           SKY/WX    TMP DP  RH WIND       PRES   REMARKS
JACKSON        CLEAR     58  56  93 NW5       30.08R FOG
LAMBERTVILLE     N/A     63  58  84 CALM      30.07S HAZE
LANSING        CLEAR     63  60  90 CALM      30.07R FOG
LAPEER         CLOUDY    60  57  89 CALM      30.06R
MASON          CLEAR     59  57  94 CALM      30.08R
MONROE         CLEAR     61  58  92 CALM      30.06S FOG
MT. CLEMENS    CLEAR     65  57  75 S3        30.05R
PONTIAC        CLEAR     64  58  80 CALM      30.06R HAZE
PORT HOPE        N/A     65  57  75 SE7       30.03R
PORT HURON     CLEAR     57  55  94 CALM      30.07R
TRI CITIES     CLEAR     69  62  78 W8        30.04R
MIDLAND        FAIR      67  60  79 N3        30.04R
TROY           CLEAR     68  57  66 CALM      30.09R HAZE
SAGINAW HB     PTCLDY    68  59  73 SW7       30.03R
$$
MIZ043>046-050>051-056>058-064>065-071>073-077>080-050600-
SOUTHWEST LOWER MICHIGAN

CITY           SKY/WX    TMP DP  RH WIND       PRES   REMARKS
BATTLE CREEK   CLEAR     65  59  81 CALM      30.07S HAZE
BENTON HARBOR  CLEAR     56  54  93 CALM      30.04S FOG
BIG RAPIDS     CLEAR     60  57  89 CALM      30.05S FOG
COLDWATER      CLEAR     60  58  96 CALM      30.07S FOG
FREMONT        FAIR      58  57  97 CALM      30.05R
HOLLAND        CLEAR     61  58  90 CALM      30.05S
GRAND RAPIDS   CLEAR     62  58  86 CALM      30.06R
IONIA          FAIR      64  60  86 SW3       30.06S
KALAMAZOO      CLEAR     63  58  83 CALM      30.06S HAZE
LUDINGTON      CLEAR     58  56  92 CALM      30.04S FOG
MARSHALL       CLEAR     61  59  94 CALM      30.07R
MOUNT PLEASANT CLEAR     65  61  88 SW3       30.05R
MUSKEGON       CLEAR     61  57  87 CALM      30.05S FOG
SOUTH HAVEN    CLEAR     58  55  91 CALM      30.05S FOG
$$
MIZ016>042-050600-
NORTHERN LOWER MICHIGAN

CITY           SKY/WX    TMP DP  RH WIND       PRES   REMARKS
ALPENA         CLEAR     55  53  93 CALM      30.04R
BEAVER ISLAND  CLEAR     55  54  98 CALM      30.03S FOG
BELLAIRE       FOG       54  53  94 CALM      30.04R VSB 1/2
CADILLAC       CLEAR     56  54  93 CALM      30.06R FOG
CHARLEVOIX     CLEAR     60  57  90 CALM      30.05S
FRANKFORT      PTCLDY    59  53  81 CALM      30.03S HAZE
GAYLORD        CLEAR     57  54  89 CALM      30.06R
GRAYLING       CLEAR     53  52  97 CALM      30.07R FOG
HARBOR SPRINGS CLEAR     57  56  95 NE3       30.03S FOG
HOUGHTON LAKE  CLEAR     56  55  97 CALM      30.06R
MANISTEE       CLEAR    N/A N/A N/A E3        30.04R
OSCODA         CLEAR     56  55  94 CALM      30.03S
PELLSTON       CLEAR     52  51  97 CALM      30.04R
ROGERS CITY    CLEAR     55  54  94 SW3       30.05R
TRAVERSE CITY  CLEAR     60  57  89 CALM      30.02R FOG
$$
MIZ007>008-015-050600-
EASTERN UPPER MICHIGAN

CITY           SKY/WX    TMP DP  RH WIND       PRES   REMARKS
KINROSS        CLEAR     54  54 100 CALM      30.02S
MACKINAC ISLAN CLEAR     55  55  97 NE3       30.02S
NEWBERRY       CLEAR     53  52  94 CALM      30.02S
S. S. MARIE    CLEAR     49  47  93 SW3       30.02S
$$
MIZ004>006-011>014-085-050600-
CENTRAL UPPER MICHIGAN

CITY           SKY/WX    TMP DP  RH WIND       PRES   REMARKS
MANISTIQUE     CLEAR     53  52  96 CALM      30.02R FOG
ESCANABA       CLEAR     57  55  94 CALM      30.01R
MENOMINEE      CLEAR     64  57  77 S3        30.00R
SAWYER-GWINN   CLEAR     57  53  85 SW3       30.03R
$$
MIZ001>003-009>011-084-050600-
WESTERN UPPER MICHIGAN

CITY           SKY/WX    TMP DP  RH WIND       PRES   REMARKS
IRON MOUNTAIN  CLEAR     63  58  83 SE3       30.01R HAZE
HOUGHTON       PTCLDY    56  50  80 E7        29.98R
COPPER HARBOR    N/A     57  52  83 SW10G21   29.96F
IRONWOOD       CLEAR     61  61 100 CALM      29.94R
$$

ABBREVIATIONS USED IN REMARKS
   TC - TEMPERATURE IN CELSIUS
  WCI - WIND CHILL INDEX
   HX - HEAT INDEX
  VSB - VISIBILITY




USA.gov is the U.S. government's official web portal to all federal, state and local government web resources and services.